Location: ????????
(38.4362°N, 22.8767°E)
Time: 08:37:55
(UTC+00:00)

GEOS 3 Rocket - Visible Passes

Search period start: 24 July 2024 00:00
Search period end: 03 August 2024 00:00
Orbit: 785 x 831 km, 115.0° (Epoch: 23 July)

Date Brightness Start Highest point End Pass type
(mag) Time Alt. Az. Time Alt. Az. Time Alt. Az.
24 Jul 4.8 02:25:01 10° NE 02:29:44 37° ESE 02:34:24 10° S visible
25 Jul 5.7 02:01:35 10° ENE 02:05:13 20° ESE 02:08:51 10° SSE visible
27 Jul 4.8 02:50:03 10° NE 02:54:50 40° ESE 02:59:34 10° S visible
28 Jul 5.7 02:26:31 10° ENE 02:30:20 21° ESE 02:34:08 10° SSE visible
29 Jul 6.3 02:04:57 10° ESE 02:05:44 10° ESE 02:06:31 10° ESE visible
31 Jul 5.7 02:51:27 10° ENE 02:55:26 23° ESE 02:59:22 10° SSE visible
01 Aug 6.2 02:29:16 10° E 02:30:50 11° ESE 02:32:25 10° SE visible
